Zurück zum Katalog

STARLINK-6088

AktivKommunikationVLEO
NORAD 56098·PAYLOAD·🇺🇸 United States

Gestartet Mar 29, 2023 von Cape Canaveral Space Force Station

Loading…

Nächste Überflüge (nächste 24 Stunden)

TLE

AktuellSource: CelesTrak SupGP

Epoche: Sep 15, 2026, 01:25 UTC

1 56098C 23046F   26258.05951389 -.00003990  00000+0 -14456-3 0  2589
2 56098  42.9997 171.8719 0001296 261.8745 179.8308 15.27574635    17

Verfolge STARLINK-6088 in Echtzeit mit AllMySat

Download on the App Store